Regional Weather Roundup
Issued by NWS

Home | Current Version | Previous Version | Graphics & Text | Print | Product List | Glossary On
Versions: 1 2 3 4 5 6 7 8 9 10 11 12 13 14 15 16 17 18 19 20 21 22 23 24 25 26 27 28 29 30 31 32 33 34 35 36 37 38 39 40 41 42 43 44 45 46 47 48 49 50
000
ASUS43 KMPX 030110
RWRMN
WEATHER ROUNDUP FOR MINNESOTA
NATIONAL WEATHER SERVICE TWIN CITIES/CHANHASSEN MN
800 PM CDT WED SEP 02 2015


NOTE: "FAIR" INDICATES FEW OR NO CLOUDS BELOW 12,000 FEET WITH NO
SIGNIFICANT WEATHER AND/OR OBSTRUCTIONS TO VISIBILITY. N/A MEANS
CURRENT SKY AND/OR WEATHER CONDITIONS ARE NOT AVAILABLE.

MNZ060>063-068>070-030200-
   Twin Cities Metro

CITY           SKY/WX    TMP DP  RH WIND       PRES   REMARKS
TWIN CITIES    PTCLDY    76  69  79 NE8       29.87R
ST PAUL        CLEAR     74  69  85 NE6       29.88R
CRYSTAL        CLEAR     74  68  81 NE6       29.87R
BLAINE         PTCLDY    72  70  94 NE7       29.89R
LAKEVILLE      CLEAR     72  72 100 NE5       29.87S
EDEN PRAIRIE   CLEAR     76  70  82 NE6       29.86R
SOUTH ST PAUL  CLEAR     74  68  80 NE5       29.87S
LAKE ELMO      FAIR      70  68  94 NE5       29.90R
$$
MNZ001>005-007-008-013>017-022>024-027-028-030200-
   Northwest Minnesota

CITY           SKY/WX    TMP DP  RH WIND       PRES   REMARKS
BEMIDJI        CLEAR     75  66  73 SE8       29.88S
HALLOCK        CLEAR     82  64  54 SE6       29.78R
ROSEAU         CLEAR     75  66  73 SE5       29.84R
WARROAD        CLEAR     75  70  83 SE6       29.85R
THIEF RVR FALL CLEAR     77  66  69 SE6       29.82S
CROOKSTON      CLEAR     81  64  57 SE9       29.81R
FOSSTON        CLEAR     79  63  57 SE5       29.86R
DETROIT LAKES  CLEAR     77  66  69 SE8       29.87R
MOORHEAD       CLEAR     81  66  61 SE8       29.81R
PARK RAPIDS    CLEAR     76  66  71 SE8       29.88R
MAHNOMEN       FAIR      76  67  72 SE5       29.84S
$$
MNZ006-009>011-018-025>026-030200-
   North Central Minnesota

CITY           SKY/WX    TMP DP  RH WIND       PRES   REMARKS
BAUDETTE       CLEAR     75  63  66 SE7       29.87R
FLAG ISLAND    CLEAR     75  68  78 SE10      29.84R
INTL FALLS     CLEAR     71  64  78 SE6       29.90R
WASKISH        CLEAR     73  64  73 CALM      29.88R
BIG FORK       CLEAR     73  64  73 CALM      29.92R
LONGVILLE      CLEAR     72  66  83 SE3       29.90S
GRAND RAPIDS     N/A     72  63  73 SE6       29.92S
CRANE LAKE     CLEAR     64  64 100 CALM      29.95R
ORR            CLEAR     70  63  78 CALM      29.91R
COOK           CLEAR     70  64  83 CALM      29.95R
WALKER         FAIR      73  65  78 SE3       29.89S
$$
MNZ012-019>021-037-030200-
   Northeast Minnesota

CITY           SKY/WX    TMP DP  RH WIND       PRES   REMARKS
DULUTH         CLEAR     65  62  90 SE5       29.95R
ELY            CLEAR     70  63  78 CALM      29.96R
HIBBING        CLEAR     69  65  86 SE7       29.94R
EVELETH        CLEAR     68  63  83 CALM      29.96S
DULUTH HARBOR  CLEAR     61  59  94 NE5       29.94S
TWO HARBORS    CLEAR     66  61  82 NE3       29.94R
SILVER BAY     CLEAR     64  61  88 CALM      29.94S
GRAND MARAIS     N/A     59  54  83 CALM      29.95R
G MARAIS ARPRT CLEAR     61  57  88 CALM      30.00S
$$
MNZ029>031-032-039>041-046>048-054>057-064-030200-
   West Central Minnesota

CITY           SKY/WX    TMP DP  RH WIND       PRES   REMARKS
FERGUS FALLS   PTCLDY    79  68  69 SE9       29.82R
WHEATON        PTCLDY    75  70  83 E9        29.82S
MORRIS         PTCLDY    77  72  83 E10       29.82S
ALEXANDRIA     PTCLDY    74  69  85 SE13      29.88S
ELBOW LAKE     FAIR      75  70  83 SE10      29.84R
WADENA         PTCLDY    73  66  78 SE8       29.87R
GLENWOOD       PTCLDY    73  70  88 E8        29.88R
APPLETON       MOCLDY    79  72  78 E9        29.81S
BENSON         MOCLDY    77  70  78 SE8       29.83S
ORTONVILLE     MOCLDY    81  72  74 SE10G16   29.81R
MADISON        MOCLDY    79  73  83 SE9       29.81S
WILLMAR        FAIR      75  72  88 E10       29.87R
$$
MNZ033>034-036-042>043-049>051-058-059-030200-
   Central Minnesota

CITY           SKY/WX    TMP DP  RH WIND       PRES   REMARKS
ST CLOUD       CLOUDY    72  69  90 E5        29.89R
SAUK CENTRE    FAIR      72  68  88 E6        29.89R
PAYNESVILLE    PTCLDY    74  70  88 NE6       29.88S
AITKIN         CLEAR     70  63  78 CALM      29.91R
PINE RIVER     CLEAR     72  64  78 SE6       29.94R
BRAINERD       CLEAR     70  65  84 VRB3      29.90S
STAPLES        PTCLDY    73  64  73 SE5       29.89R
LONG PRAIRIE   MOCLDY    70  66  88 E5        29.90R
LITTLE FALLS   MOCLDY    72  64  78 E3        29.89S
LITCHFIELD     PTCLDY    75  73  94 E6        29.88R
BUFFALO        CLEAR     73  68  84 NE5       29.89R
MAPLE LAKE     CLEAR     72  70  92 E7        29.89R
$$
MNZ037-044-045-052-053-030200-
   East Central Minnesota

CITY           SKY/WX    TMP DP  RH WIND       PRES   REMARKS
PRINCETON      PTCLDY    72  68  88 CALM      29.90R
MORA           CLOUDY    70  64  83 CALM      29.93R
CAMBRIDGE      CLEAR     72  63  73 CALM      29.89R
RUSH CITY      CLOUDY    71  67  86 E3        29.91R
MOOSE LAKE     CLEAR     68  64  88 CALM      29.91R
HINCKLEY       CLOUDY    72  68  88 E3        29.92R
CLOQUET        CLEAR     66  63  88 E5        29.94S
MCGREGOR       CLEAR     70  64  83 SE3       29.92S
$$
MNZ071>073-080-081-089-090-097-098-030200-
   Southwest Minnesota

CITY           SKY/WX    TMP DP  RH WIND       PRES   REMARKS
MONTEVIDEO     MOCLDY    79  73  83 SE8       29.84S
GRANITE FALLS  MOCLDY    79  74  84 E6        29.84S
CANBY          MOCLDY    80  74  82 SE7       29.83R
MARSHALL       MOCLDY    81  72  74 SE8       29.84S
REDWOOD FALLS  MOCLDY    80  74  81 E7        29.83R
OLIVIA         PTCLDY    73  70  88 E6        29.84S
PIPESTONE      PTCLDY    79  72  78 S5        29.86R
WINDOM         MOCLDY    79  72  78 CALM      29.86S
WORTHINGTON    PTCLDY    77  70  78 SE6       29.87R
JACKSON        PTCLDY    79  72  78 S6        29.87F
TRACY          MOCLDY    80  74  84 S3        29.85R
SLAYTON        MOCLDY    77  74  92 CALM      29.87S
$$
MNZ065>067-074>077-082>085-091>093-030200-
   South Central Minnesota

CITY           SKY/WX    TMP DP  RH WIND       PRES   REMARKS
MANKATO        PTCLDY    79  73  83 SE6       29.85S
NEW ULM        MOCLDY    79  73  83 SE5       29.84S
ST JAMES       PTCLDY    79  73  83 SE5       29.86R
FAIRMONT       PTCLDY    77  66  69 S6        29.86R
GLENCOE        PTCLDY    76  73  90 CALM      29.85S
FARIBAULT      CLEAR     73  72  94 CALM      29.87S
OWATONNA       CLEAR     79  70  73 S5        29.87S
WASECA         CLEAR     75  72  88 SE5       29.88S
ALBERT LEA     CLEAR     79  70  73 S3        29.88R
$$
MNZ078>079-086>088-094>096-030200-
   Southeast Minnesota

CITY           SKY/WX    TMP DP  RH WIND       PRES   REMARKS
ROCHESTER      PTCLDY    75  71  87 S5        29.90R
RED WING       CLEAR     73  70  88 E5        29.86S
STANTON        CLEAR     76  72  87 NE5       29.85S
DODGE CENTER   CLEAR     73  72  94 S3        29.89S
WINONA         CLEAR     79  70  73 CALM      29.87S
AUSTIN         CLEAR     79  72  78 CALM      29.88S
PRESTON        MOCLDY    76  71  85 S5        29.90S
$$
ABBREVIATIONS USED IN REMARKS
   TC - TEMPERATURES IN CELSIUS
  WCI - WIND CHILL INDEX
   HX - HEAT INDEX
  VSB - VISIBILITY
$$


USA.gov is the U.S. government's official web portal to all federal, state and local government web resources and services.